Date,TemperatureHighF,TemperatureAvgF,TemperatureLowF,DewpointHighF,DewpointAvgF,DewpointLowF,HumidityHigh,HumidityAvg,HumidityLow,PressureMaxIn,PressureMinIn,WindSpeedMaxMPH,WindSpeedAvgMPH,GustSpeedMaxMPH,PrecipitationSumIn
2013-1-1,39,34,31,31,30,26,92,83,73,30.05,29.94,18,7,36,0.00
2013-1-2,32,27,24,27,20,16,85,75,62,30.26,30.03,11,4,21,0.00
2013-1-3,35,26,15,24,20,14,95,78,60,30.27,30.17,15,3,28,0.00
2013-1-4,33,30,28,24,23,21,78,74,69,30.26,30.17,19,8,40,0.00
2013-1-5,41,32,28,30,25,22,91,75,53,30.40,30.19,14,4,23,0.00
2013-1-6,40,34,28,32,30,26,95,84,69,30.20,30.05,11,3,21,0.00
2013-1-7,36,31,21,31,26,20,96,82,70,30.49,30.19,10,3,19,0.00
2013-1-8,48,28,16,35,24,15,98,88,55,30.46,30.36,8,1,15,0.00
2013-1-9,51,36,24,45,33,23,98,88,75,30.47,30.25,15,4,24,0.00
2013-1-10,48,39,30,37,33,28,97,81,56,30.63,30.46,7,2,14,0.00
2013-1-11,40,37,33,38,35,32,100,95,74,30.46,30.11,4,0,7,0.17
2013-1-12,56,43,35,51,42,35,100,98,85,30.19,30.09,3,1,6,0.00
2013-1-13,52,45,40,51,45,40,100,100,96,30.09,29.93,4,0,5,0.01
2013-1-14,50,44,34,50,41,34,100,90,75,30.35,29.94,16,3,28,0.35
2013-1-15,36,34,32,35,33,32,100,98,90,30.37,30.16,6,2,10,0.51
2013-1-16,41,35,32,40,34,31,100,95,76,30.17,29.86,9,4,18,0.14
2013-1-17,38,35,33,32,30,27,90,80,68,30.16,30.02,11,4,16,0.00
2013-1-18,36,28,22,28,19,13,87,69,44,30.53,30.15,16,5,35,0.00
2013-1-19,56,37,19,30,24,18,95,64,30,30.37,29.92,17,6,32,0.00
2013-1-20,48,40,27,33,24,13,91,54,33,30.11,29.83,25,9,42,0.00
2013-1-21,38,28,16,22,17,6,84,64,39,30.10,29.86,16,6,32,0.00
2013-1-22,16,12,8,6,1,-2,87,62,51,30.33,30.04,18,8,32,0.00
2013-1-23,20,14,8,14,4,0,91,63,50,30.38,30.13,12,4,25,0.01
2013-1-24,21,16,8,15,10,4,96,77,56,30.58,30.10,14,4,25,0.04
2013-1-25,24,14,8,21,10,4,99,84,69,30.58,30.08,17,1,28,0.06
2013-1-26,30,26,22,24,20,14,90,79,66,30.49,30.07,20,6,32,0.00
2013-1-27,32,26,18,25,19,14,88,75,61,30.61,30.46,5,2,10,0.00
2013-1-28,52,35,28,50,34,24,100,95,79,30.46,30.06,12,2,24,0.19
2013-1-29,68,50,40,58,48,40,100,94,65,30.12,29.91,11,2,17,0.01
2013-1-30,68,48,36,62,47,36,100,98,77,29.91,29.25,23,4,38,0.92
2013-1-31,50,31,24,49,25,13,97,79,62,29.90,29.22,29,11,47,0.13
2013-2-1,26,18,12,23,11,5,93,73,62,30.41,29.84,22,8,36,0.00
2013-2-2,30,19,8,25,14,5,99,82,54,30.41,30.03,7,2,12,0.02
2013-2-3,32,26,20,26,22,13,99,87,71,30.04,29.83,17,4,31,0.02
2013-2-4,33,26,20,29,20,12,100,79,58,30.10,29.89,23,6,39,0.22
2013-2-5,38,32,28,36,31,28,100,97,83,29.95,29.84,15,3,27,0.04
2013-2-6,34,31,22,33,28,22,100,88,78,30.36,29.94,12,3,24,0.00
2013-2-7,36,29,22,30,25,22,98,87,76,30.43,30.17,7,2,11,0.00
2013-2-8,38,32,27,37,29,22,100,88,79,30.17,29.83,19,5,35,0.08
2013-2-9,35,27,20,22,20,18,92,76,49,30.43,30.09,16,6,29,0.00
2013-2-10,42,28,14,35,23,12,95,82,55,30.46,30.13,4,1,6,0.00
2013-2-11,66,47,36,52,38,30,100,76,35,30.13,29.69,18,6,34,0.02
2013-2-12,54,43,32,35,31,29,92,65,40,29.97,29.82,25,10,42,0.00
2013-2-13,38,32,25,34,29,23,100,90,67,29.94,29.66,10,1,15,0.10
2013-2-14,43,34,26,33,28,23,96,79,59,29.99,29.82,9,4,23,0.00
2013-2-15,46,33,25,36,29,24,100,86,55,30.04,29.94,12,3,19,0.00
2013-2-16,33,28,20,29,20,13,96,73,56,30.01,29.90,9,4,17,0.02
2013-2-17,23,19,16,16,11,6,82,71,56,30.27,29.90,18,7,29,0.00
2013-2-18,42,25,10,25,14,6,89,67,39,30.38,30.07,8,2,15,0.00
2013-2-19,49,33,22,41,28,19,100,82,63,30.07,29.67,19,6,33,0.06
2013-2-20,28,23,19,20,14,8,79,69,62,30.23,29.87,22,10,40,0.00
2013-2-21,29,22,18,18,14,10,86,72,63,30.36,30.17,14,5,23,0.00
2013-2-22,28,25,22,27,22,17,100,89,76,30.37,30.15,5,2,8,0.03
2013-2-23,44,32,28,38,30,26,100,92,76,30.15,29.84,6,0,7,0.00
2013-2-24,39,31,24,30,26,19,100,81,61,30.16,29.84,17,4,27,0.00
2013-2-25,43,30,20,26,22,18,93,76,47,30.24,30.14,7,2,12,0.00
2013-2-26,33,28,22,31,26,20,100,93,76,30.19,29.69,8,2,12,0.69
2013-2-27,44,36,30,37,33,30,100,91,72,29.70,29.62,14,4,25,0.05
2013-2-28,37,34,31,33,29,26,100,84,73,29.78,29.65,14,5,38,0.00
2013-3-1,35,31,26,29,26,21,89,80,69,29.93,29.78,12,4,20,0.01
2013-3-2,29,26,24,22,20,18,81,76,66,29.94,29.87,11,5,17,0.00
2013-3-3,31,26,23,20,18,15,83,73,61,30.00,29.89,15,7,26,0.00
2013-3-4,37,27,20,21,17,13,86,68,50,30.11,29.99,13,5,27,0.00
2013-3-5,48,34,22,30,22,19,100,65,37,30.09,29.76,12,4,25,0.11
2013-3-6,37,32,29,33,30,28,100,92,73,30.09,29.72,12,3,18,0.78
2013-3-7,39,34,32,30,29,28,90,80,67,30.24,30.08,12,4,21,0.00
2013-3-8,37,32,29,29,26,24,84,78,69,30.39,30.22,20,8,34,0.00
2013-3-9,55,35,22,35,27,21,96,78,39,30.42,30.25,6,2,8,0.00
2013-3-10,64,40,25,40,31,24,96,75,39,30.29,30.11,11,2,14,0.00
2013-3-11,56,44,34,47,38,32,100,81,50,30.12,29.80,12,2,19,0.02
2013-3-12,46,41,36,46,36,27,100,85,71,30.01,29.73,15,5,28,0.10
2013-3-13,40,32,26,32,26,18,100,79,56,30.11,29.93,14,6,28,0.03
2013-3-14,38,30,23,23,20,16,93,66,51,30.22,30.10,18,8,38,0.02
2013-3-15,52,39,30,37,28,19,86,63,52,30.13,29.80,15,6,30,0.00
2013-3-16,44,40,37,41,38,34,100,90,76,29.89,29.64,12,3,18,0.01
2013-3-17,40,35,32,37,29,25,96,81,70,30.23,29.89,7,3,11,0.00
2013-3-18,32,29,27,30,28,24,100,97,73,30.25,29.87,10,4,14,0.79
2013-3-19,48,37,30,34,26,16,100,68,37,29.98,29.76,19,7,34,0.01
2013-3-20,44,34,28,30,20,15,97,58,39,29.99,29.77,16,7,31,0.00
2013-3-21,28,24,21,23,15,11,86,68,56,29.94,29.82,14,5,23,0.00
2013-3-22,41,29,23,24,19,15,87,66,47,30.03,29.91,15,6,27,0.00
2013-3-23,48,32,18,28,23,17,97,72,40,30.05,29.95,11,3,24,0.00
2013-3-24,37,29,24,30,25,21,100,87,60,30.01,29.62,7,2,13,0.20
2013-3-25,36,31,28,34,30,28,100,95,84,29.72,29.52,8,1,22,0.44
2013-3-26,43,35,32,31,29,26,89,78,60,30.07,29.72,12,6,22,0.00
2013-3-27,41,34,30,32,29,26,87,81,65,30.16,30.05,15,5,25,0.00
2013-3-28,42,36,32,32,29,27,87,75,63,30.26,30.11,13,6,27,0.00
2013-3-29,53,40,32,34,30,28,93,70,43,30.27,30.15,12,3,20,0.00
2013-3-30,55,39,26,34,28,22,94,70,31,30.26,30.09,8,2,15,0.00
2013-3-31,40,36,32,40,34,28,100,95,84,30.09,29.76,6,0,11,0.29
2013-4-1,49,38,33,43,33,18,100,83,52,30.00,29.75,15,6,28,0.09
2013-4-2,42,33,27,22,18,14,80,55,38,30.19,29.99,15,7,29,0.00
2013-4-3,43,32,22,22,19,13,88,60,35,30.41,30.19,16,6,28,0.00
2013-4-4,49,33,18,31,21,14,86,63,35,30.41,30.03,10,2,15,0.00
2013-4-5,58,44,31,36,30,23,90,60,38,30.11,29.88,14,5,24,0.00
2013-4-6,58,41,25,32,24,18,89,56,27,30.31,30.11,8,3,13,0.00
2013-4-7,74,51,35,49,39,29,87,66,40,30.15,29.89,13,3,21,0.00
2013-4-8,76,58,40,53,48,40,100,72,42,30.06,29.87,9,2,13,0.00
2013-4-9,84,64,47,60,53,45,97,71,41,30.07,29.89,12,4,19,0.00
2013-4-10,85,69,51,62,56,49,92,65,43,29.94,29.76,21,6,31,0.00
2013-4-11,81,65,48,61,56,48,100,75,46,29.87,29.62,12,3,15,0.00
2013-4-12,70,57,44,61,51,38,100,82,45,29.81,29.56,17,5,28,1.07
2013-4-13,63,50,41,43,36,31,86,60,36,29.97,29.79,19,6,28,0.00
2013-4-14,69,52,35,49,40,29,97,67,39,30.15,29.97,9,3,15,0.00
2013-4-15,63,57,50,56,52,47,100,83,70,30.18,30.06,11,4,16,0.02
2013-4-16,84,68,55,66,60,54,100,78,49,30.19,29.98,22,4,35,0.36
2013-4-17,76,65,54,67,61,54,100,89,67,30.17,30.08,11,3,14,0.01
2013-4-18,82,69,60,69,62,58,96,81,59,30.15,29.85,19,6,28,0.00
2013-4-19,76,61,48,67,56,40,100,85,70,29.86,29.50,20,8,34,0.41
2013-4-20,57,47,36,41,33,29,85,60,39,30.37,29.79,15,8,30,0.00
2013-4-21,56,43,30,37,31,28,94,67,36,30.58,30.37,12,2,16,0.00
2013-4-22,59,46,33,41,35,30,89,66,41,30.53,30.33,11,5,20,0.00
2013-4-23,68,50,34,50,42,33,96,75,47,30.36,30.06,8,3,13,0.00
2013-4-24,80,56,38,65,50,38,100,83,48,30.10,29.68,22,5,37,0.09
2013-4-25,65,51,38,42,37,31,84,61,31,30.31,30.09,11,5,19,0.00
2013-4-26,67,50,36,47,40,35,98,70,39,30.46,30.30,9,2,14,0.00
2013-4-27,73,54,36,52,43,35,98,70,40,30.40,30.19,11,3,15,0.00
2013-4-28,54,50,41,54,49,41,100,96,84,30.21,30.05,8,2,12,0.32
2013-4-29,62,56,50,59,54,50,100,96,87,30.07,29.98,6,2,9,0.09
2013-4-30,64,57,53,59,56,53,100,96,82,30.25,30.06,11,4,15,0.02
2013-5-1,72,60,50,56,49,40,100,71,34,30.36,30.24,11,4,18,0.00
2013-5-2,73,56,39,54,46,39,100,74,40,30.39,30.26,11,4,17,0.00
2013-5-3,70,56,39,57,48,39,100,77,54,30.33,30.20,13,5,22,0.00
2013-5-4,70,54,40,54,46,39,100,77,53,30.28,30.11,13,5,22,0.00
2013-5-5,68,54,38,50,45,38,100,73,44,30.19,30.06,12,4,18,0.00
2013-5-6,57,53,48,57,50,44,100,92,77,30.14,30.02,9,4,14,0.08
2013-5-7,60,57,54,60,57,54,100,100,100,30.02,29.90,9,6,16,1.33
2013-5-8,68,58,53,60,56,53,100,93,66,29.99,29.89,9,3,14,0.41
2013-5-9,77,62,50,63,56,50,100,85,49,29.99,29.88,15,3,19,0.02
2013-5-10,80,61,50,71,59,50,100,94,59,30.00,29.83,18,1,32,0.47
2013-5-11,71,63,58,67,60,53,100,91,68,29.83,29.72,13,3,24,0.19
2013-5-12,59,52,40,54,40,32,98,67,43,30.02,29.76,16,6,30,0.01
2013-5-13,56,46,37,40,35,28,96,68,41,30.18,30.01,14,5,26,0.00
2013-5-14,65,48,31,53,41,31,100,78,42,30.21,29.98,9,2,16,0.01
2013-5-15,91,68,44,70,57,44,100,72,43,29.99,29.68,15,5,31,0.00
2013-5-16,78,70,60,66,61,58,97,75,52,30.04,29.73,16,7,29,0.03
2013-5-17,85,69,55,69,61,55,100,79,42,30.17,30.03,6,2,13,0.00
2013-5-18,71,63,54,66,60,54,100,92,75,30.25,30.17,9,2,14,0.01
2013-5-19,66,61,59,65,61,59,100,100,97,30.25,30.13,5,2,8,0.00
2013-5-20,90,70,60,77,67,60,100,92,56,30.17,30.01,12,1,15,0.24
2013-5-21,92,74,59,75,67,59,100,83,49,30.06,29.88,9,2,16,0.01
2013-5-22,90,72,62,72,67,62,100,86,49,29.99,29.88,18,2,29,0.23
2013-5-23,84,69,62,72,64,60,100,86,52,29.93,29.80,18,4,29,0.04
2013-5-24,66,53,45,60,45,36,88,75,56,30.33,29.85,20,8,31,0.00
2013-5-25,62,49,39,44,38,33,85,68,48,30.37,30.26,17,5,27,0.00
2013-5-26,70,55,36,47,42,36,99,65,34,30.35,30.26,11,4,18,0.00
2013-5-27,65,54,38,57,49,38,100,83,60,30.39,30.26,6,1,9,0.00
2013-5-28,85,64,51,72,60,51,100,89,53,30.28,30.11,9,2,20,0.10
2013-5-29,89,72,56,72,64,56,100,78,50,30.18,30.13,13,4,23,0.01
2013-5-30,94,75,58,77,67,58,100,80,42,30.27,30.15,7,1,11,0.00
2013-5-31,94,75,56,76,67,56,100,79,44,30.22,30.04,8,2,14,0.00
2013-6-1,93,76,62,78,70,62,100,83,53,30.10,29.92,8,2,12,0.00
2013-6-2,81,72,64,68,64,61,100,78,56,29.94,29.88,11,3,19,0.00
2013-6-3,76,68,55,65,60,51,94,77,54,30.09,29.92,9,3,13,0.03
2013-6-4,80,62,45,54,48,43,95,65,32,30.23,30.08,6,2,10,0.00
2013-6-5,79,64,47,61,54,45,94,72,51,30.25,30.06,7,2,11,0.00
2013-6-6,66,64,62,62,60,58,95,89,78,30.08,29.91,5,2,13,0.68
2013-6-7,69,65,62,67,63,60,96,93,87,29.91,29.75,8,1,15,0.16
2013-6-8,81,67,59,64,59,56,93,77,47,30.19,29.86,8,2,14,0.00
2013-6-9,81,68,57,68,62,55,95,80,60,30.26,30.13,7,2,13,0.00
2013-6-10,78,69,61,72,66,59,96,90,74,30.14,29.85,8,1,13,0.61
2013-6-11,79,71,61,67,63,60,95,76,61,29.95,29.87,14,5,25,0.00
2013-6-12,88,76,65,72,66,61,92,72,49,29.96,29.84,8,3,17,0.00
2013-6-13,76,68,64,69,64,55,95,86,70,29.85,29.60,13,6,29,0.63
2013-6-14,78,67,58,58,54,51,85,64,42,30.10,29.78,11,4,19,0.00
2013-6-15,83,67,52,61,53,44,95,66,28,30.19,30.08,9,2,15,0.00
2013-6-16,82,70,60,69,61,55,91,74,56,30.13,29.96,15,4,31,0.00
2013-6-17,87,74,64,70,65,61,91,73,48,30.03,29.94,8,3,12,0.06
2013-6-18,76,69,63,68,65,60,94,87,74,30.00,29.88,9,1,15,0.17
2013-6-19,79,67,60,64,60,57,95,80,52,30.22,29.98,6,2,10,0.34
2013-6-20,85,70,58,68,62,56,95,78,46,30.31,30.22,7,2,12,0.00
2013-6-21,88,73,61,70,64,59,95,76,47,30.34,30.24,6,2,9,0.00
2013-6-22,91,74,60,73,66,58,95,76,46,30.29,30.15,5,2,9,0.00
2013-6-23,91,74,61,73,66,59,95,77,42,30.25,30.11,7,1,11,0.00
2013-6-24,93,76,63,74,67,61,95,76,43,30.22,30.08,8,2,13,0.00
2013-6-25,94,78,64,72,67,62,95,71,40,30.13,29.96,14,3,23,0.00
2013-6-26,85,74,66,74,67,63,92,79,55,30.01,29.89,11,2,20,0.13
2013-6-27,80,70,64,73,68,63,100,93,73,29.91,29.71,9,2,17,0.49
2013-6-28,84,72,64,74,68,62,99,88,66,29.71,29.56,18,4,27,0.13
2013-6-29,87,72,61,71,65,60,100,80,48,29.78,29.60,9,3,17,0.00
2013-6-30,88,72,59,74,66,59,100,85,55,29.94,29.78,10,2,19,0.77
2013-7-1,82,72,66,76,70,65,100,94,72,30.01,29.90,5,1,10,0.08
2013-7-2,85,75,67,76,71,67,100,88,69,30.17,30.01,9,2,18,0.00
2013-7-3,89,75,67,78,71,66,100,87,64,30.26,30.16,10,2,14,0.01
2013-7-4,90,78,67,77,72,67,100,83,59,30.29,30.17,10,2,15,0.01
2013-7-5,93,78,66,78,72,66,100,83,55,30.25,30.14,9,2,15,0.01
2013-7-6,96,79,66,78,71,65,100,80,51,30.26,30.08,8,2,13,0.00
2013-7-7,87,73,67,76,69,66,100,90,64,30.17,30.08,17,1,31,0.46
2013-7-8,87,74,64,72,68,64,100,81,54,30.20,30.11,10,2,16,0.00
2013-7-9,89,76,69,75,71,68,100,86,60,30.17,30.05,13,2,25,0.07
2013-7-10,92,77,69,79,73,65,100,87,54,30.08,29.89,12,2,22,0.08
2013-7-11,83,74,66,72,67,64,97,80,62,30.06,29.93,9,2,12,0.20
2013-7-12,71,67,63,69,66,62,100,95,81,30.17,30.02,5,1,9,0.12
2013-7-13,81,72,66,73,69,66,100,90,73,30.32,30.16,6,1,8,0.00
2013-7-14,91,79,68,76,72,68,100,80,52,30.39,30.31,7,2,13,0.00
2013-7-15,94,78,64,77,70,63,100,79,47,30.40,30.28,6,1,8,0.00
2013-7-16,96,80,67,79,72,67,100,81,52,30.36,30.24,9,2,15,0.00
2013-7-17,96,83,70,80,74,69,98,77,50,30.33,30.16,8,2,13,0.00
2013-7-18,98,84,71,82,76,70,100,80,51,30.22,30.07,8,2,11,0.00
2013-7-19,99,82,71,80,74,71,100,79,48,30.09,29.94,13,3,18,0.00
2013-7-20,92,82,73,77,72,69,92,74,53,29.98,29.86,13,4,23,0.00
2013-7-21,86,76,68,74,70,66,96,83,67,30.02,29.95,9,1,13,0.00
2013-7-22,79,73,70,75,72,70,100,96,85,30.02,29.84,6,1,8,1.37
2013-7-23,90,76,67,73,70,66,100,84,54,29.85,29.74,13,2,29,0.31
2013-7-24,80,71,60,70,64,58,100,80,55,30.04,29.77,11,3,18,0.00
2013-7-25,81,67,56,64,60,55,100,79,48,30.16,30.03,6,2,11,0.00
2013-7-26,85,69,53,66,60,52,100,77,46,30.20,30.08,6,1,8,0.00
2013-7-27,74,66,59,72,65,58,100,95,88,30.10,29.96,4,1,7,0.07
2013-7-28,85,72,61,70,65,58,100,80,48,30.10,29.93,12,3,16,0.06
2013-7-29,80,67,52,62,58,52,100,76,46,30.26,30.10,8,2,13,0.00
2013-7-30,85,70,56,67,61,56,100,78,47,30.32,30.21,6,1,8,0.00
2013-7-31,81,68,58,70,64,58,100,87,65,30.24,30.04,7,1,11,0.00
2013-8-1,87,74,66,74,68,64,96,84,56,30.05,29.88,10,1,16,0.00
2013-8-2,85,72,60,68,63,59,100,76,45,30.05,29.97,9,3,18,0.01
2013-8-3,76,70,64,69,66,63,100,89,71,30.05,29.99,7,2,10,0.13
2013-8-4,80,68,57,65,60,56,100,79,44,30.15,30.03,10,3,19,0.01
2013-8-5,80,66,52,64,58,52,100,77,43,30.21,30.07,6,1,8,0.00
2013-8-6,82,71,58,69,63,57,97,78,59,30.11,30.06,8,2,11,0.00
2013-8-7,89,74,68,78,70,67,100,88,65,30.10,30.00,10,2,17,0.56
2013-8-8,78,72,67,77,71,66,100,98,91,30.08,30.00,4,0,6,0.39
2013-8-9,83,75,71,77,73,71,100,94,77,30.06,29.95,8,2,15,0.15
2013-8-10,87,74,66,72,68,64,100,86,50,30.16,30.05,7,1,11,0.02
2013-8-11,88,74,64,76,69,64,99,85,59,30.18,30.05,4,1,6,0.00
2013-8-12,90,75,64,72,68,64,100,82,49,30.12,29.97,7,2,12,0.00
2013-8-13,85,73,66,73,67,59,100,83,59,29.97,29.83,10,3,22,0.51
2013-8-14,73,62,51,59,54,50,97,74,56,30.22,29.96,10,3,20,0.00
2013-8-15,77,62,48,60,54,48,100,79,47,30.30,30.18,5,1,9,0.00
2013-8-16,81,64,49,65,57,49,100,79,50,30.27,30.19,6,1,11,0.00
2013-8-17,78,65,51,65,59,51,100,83,56,30.36,30.27,7,2,12,0.00
2013-8-18,68,64,60,64,62,59,99,94,83,30.35,30.25,3,0,4,0.42
2013-8-19,84,70,63,74,67,63,99,91,65,30.26,30.12,6,1,9,0.03
2013-8-20,87,71,60,70,65,60,100,84,51,30.27,30.17,6,1,9,0.00
2013-8-21,86,72,61,76,69,60,100,91,68,30.28,30.14,8,1,17,0.06
2013-8-22,88,75,66,74,68,65,100,82,56,30.17,30.03,10,2,17,0.00
2013-8-23,78,68,60,69,66,59,100,92,66,30.23,30.03,6,1,12,0.40
2013-8-24,82,67,56,71,62,56,100,87,56,30.42,30.23,6,1,8,0.00
2013-8-25,86,68,57,70,62,56,100,84,50,30.49,30.31,5,1,8,0.00
2013-8-26,88,72,56,71,64,56,100,79,51,30.35,30.09,9,2,15,0.00
2013-8-27,86,79,70,75,71,66,88,78,66,30.09,29.98,11,4,19,0.00
2013-8-28,79,74,71,76,73,71,100,96,82,30.00,29.84,7,1,14,0.68
2013-8-29,87,75,67,75,71,66,100,89,61,30.09,29.94,6,1,9,0.00
2013-8-30,91,74,64,77,70,64,100,87,56,30.11,29.91,4,1,8,0.01
2013-8-31,91,76,66,77,70,66,100,84,55,29.94,29.84,8,2,14,0.00
2013-9-1,89,76,66,76,71,66,100,86,58,29.92,29.83,10,2,16,0.00
2013-9-2,91,77,68,75,70,65,100,81,54,29.88,29.79,10,3,21,0.00
2013-9-3,82,72,60,67,62,58,98,75,50,30.08,29.85,12,3,23,0.00
2013-9-4,85,67,54,64,58,53,100,77,41,30.19,30.08,6,2,12,0.00
2013-9-5,81,68,57,66,60,55,97,77,48,30.25,30.13,11,3,20,0.00
2013-9-6,78,60,47,58,52,46,100,78,36,30.36,30.21,7,1,9,0.00
2013-9-7,86,64,47,64,54,46,100,76,34,30.24,30.04,7,2,12,0.00
2013-9-8,88,73,61,71,65,58,95,76,54,30.12,29.97,10,3,16,0.00
2013-9-9,78,68,64,65,60,52,96,76,62,30.25,30.12,6,2,9,0.00
2013-9-10,94,76,61,78,70,61,100,83,56,30.24,30.14,9,2,15,0.00
2013-9-11,96,78,68,78,73,68,100,87,53,30.22,30.08,7,2,12,0.58
2013-9-12,90,75,66,77,70,66,100,87,58,30.09,29.83,12,3,21,0.03
2013-9-13,75,64,54,66,57,47,99,79,46,30.08,29.83,15,4,21,0.11
2013-9-14,69,55,46,52,48,45,98,79,50,30.28,30.08,8,2,13,0.00
2013-9-15,79,59,42,65,53,42,100,83,54,30.32,30.15,4,1,7,0.00
2013-9-16,70,61,54,60,57,53,99,87,59,30.34,30.12,9,2,14,0.03
2013-9-17,70,56,45,54,51,43,100,84,50,30.52,30.34,8,2,10,0.00
2013-9-18,71,53,38,58,48,37,100,86,58,30.42,30.25,6,1,9,0.00
2013-9-19,80,63,52,66,58,52,99,86,57,30.28,30.13,5,1,8,0.00
2013-9-20,84,67,54,70,62,53,100,87,59,30.16,29.97,6,1,9,0.00
2013-9-21,76,65,58,70,64,57,100,95,80,29.97,29.74,12,2,18,0.38
2013-9-22,70,58,49,60,53,48,100,84,54,30.08,29.84,9,3,20,0.00
2013-9-23,66,54,45,50,48,44,99,81,53,30.22,30.08,7,2,13,0.00
2013-9-24,74,53,39,59,48,38,100,86,54,30.24,30.05,6,1,7,0.00
2013-9-25,73,56,45,58,51,44,100,86,56,30.11,29.98,5,1,9,0.00
2013-9-26,78,59,46,58,52,45,100,81,44,30.18,30.05,7,1,8,0.01
2013-9-27,77,58,44,59,52,43,100,83,49,30.32,30.18,9,1,12,0.00
2013-9-28,69,56,47,60,52,46,100,88,61,30.41,30.31,8,2,14,0.00
2013-9-29,74,56,45,58,51,44,100,86,55,30.31,30.13,6,1,9,0.01
2013-9-30,75,60,45,63,55,45,100,86,60,30.18,30.07,4,0,7,0.00
2013-10-1,82,67,56,66,61,56,100,82,50,30.18,30.07,8,2,14,0.00
2013-10-5,86,74,64,70,66,63,95,78,55,30.10,30.05,4,1,8,0.00
2013-10-6,92,72,58,70,63,58,100,77,40,30.09,29.90,14,3,20,0.00
2013-10-7,65,59,48,63,55,46,98,86,61,30.19,29.81,14,4,20,0.62
2013-10-8,69,55,43,52,47,42,99,78,48,30.40,30.18,7,2,10,0.00
2013-10-9,62,52,41,52,47,40,100,84,66,30.46,30.35,6,1,9,0.00
2013-10-10,58,54,50,56,52,47,100,94,79,30.35,30.17,3,0,6,0.50
2013-10-11,61,57,53,60,56,53,100,100,97,30.17,30.10,3,1,5,0.33
2013-10-12,64,61,58,64,61,58,100,100,98,30.29,30.13,7,1,11,0.31
2013-10-13,61,58,57,60,58,57,100,100,98,30.38,30.28,4,1,5,0.56
2013-10-14,62,59,57,60,58,57,100,98,91,30.37,30.29,4,1,5,0.02
2013-10-15,71,62,55,63,59,54,100,91,70,30.29,30.10,5,1,6,0.00
2013-10-16,70,59,50,62,56,50,100,92,74,30.11,29.95,3,0,4,0.00
2013-10-17,66,62,54,64,60,48,100,94,80,29.94,29.72,18,3,28,0.19
2013-10-18,66,55,43,50,46,42,96,72,45,30.08,29.93,10,4,19,0.00
2013-10-19,61,48,37,51,44,37,99,87,58,30.06,29.83,16,3,33,0.00
2013-10-20,62,49,38,44,40,36,98,73,43,30.16,30.00,10,4,14,0.00
2013-10-21,71,49,34,51,41,33,97,79,40,30.20,29.98,6,1,7,0.00
2013-10-22,56,46,37,50,41,35,100,84,47,29.98,29.91,13,3,26,0.00
2013-10-23,46,42,38,44,39,36,96,91,83,30.01,29.79,10,2,12,0.21
2013-10-24,47,41,38,39,35,31,97,80,62,30.21,30.00,13,6,23,0.05
2013-10-25,46,40,33,37,33,30,91,77,61,30.39,30.21,15,6,23,0.00
2013-10-26,58,44,30,35,31,27,96,65,32,30.38,29.99,15,5,28,0.00
2013-10-27,58,48,37,40,37,33,92,67,44,30.20,30.03,10,4,18,0.00
2013-10-28,62,45,32,46,38,30,96,81,49,30.36,30.20,5,1,7,0.00
2013-10-29,63,46,34,46,40,32,97,81,51,30.47,30.34,5,1,5,0.00
2013-10-30,65,52,41,56,48,40,96,86,66,30.37,30.19,2,0,3,0.00
2013-10-31,64,57,52,59,56,50,100,94,78,30.21,29.69,12,1,12,0.01
2013-11-1,71,64,52,62,54,47,100,71,47,29.74,29.51,21,9,40,0.03
2013-11-2,57,48,40,49,43,39,100,83,58,29.98,29.72,12,3,21,0.00
2013-11-3,56,46,33,42,34,26,87,66,34,30.51,29.98,10,5,19,0.00
2013-11-4,44,36,28,31,28,25,93,74,52,30.69,30.51,6,1,8,0.00
2013-11-5,50,40,32,36,32,28,87,73,49,30.68,30.50,3,1,5,0.00
2013-11-6,72,48,32,57,42,30,94,81,57,30.51,30.05,11,2,18,0.01
2013-11-7,57,50,41,56,43,27,97,77,54,30.16,29.91,18,7,29,0.03
2013-11-8,48,40,29,31,29,25,88,65,44,30.39,30.15,17,6,30,0.00
2013-11-9,58,40,26,38,29,23,91,70,36,30.35,30.04,11,2,16,0.00
2013-11-10,54,47,39,38,32,28,68,55,39,30.29,30.01,18,9,27,0.00
2013-11-11,61,44,30,34,28,15,89,58,20,30.32,30.03,10,3,18,0.00
2013-11-12,51,35,28,40,25,17,89,68,47,30.49,30.03,13,5,20,0.03
2013-11-13,38,31,27,23,21,19,75,67,51,30.56,30.42,10,5,19,0.00
2013-11-14,54,38,28,27,21,14,83,54,27,30.42,30.26,11,4,16,0.00
2013-11-15,60,41,25,42,28,21,96,66,27,30.31,30.19,11,2,13,0.03
2013-11-16,59,47,37,49,44,37,100,89,67,30.31,30.18,4,1,6,0.01
2013-11-17,60,51,39,57,49,39,100,93,82,30.18,29.66,18,2,20,0.12
2013-11-18,60,53,44,50,37,28,82,55,37,30.00,29.73,24,10,36,0.00
2013-11-19,44,37,27,30,26,23,87,67,55,30.43,30.00,12,5,22,0.00
2013-11-20,44,32,22,27,22,20,91,71,41,30.60,30.43,8,2,11,0.00
2013-11-21,47,35,25,36,29,21,92,80,64,30.58,30.39,4,1,5,0.00
2013-11-22,55,46,37,53,42,34,100,87,76,30.39,30.08,14,2,20,0.04
2013-11-23,44,36,24,40,26,14,86,69,52,30.32,30.12,15,7,22,0.01
2013-11-24,26,22,17,16,10,8,80,59,47,30.58,30.32,15,6,25,0.00
2013-11-25,39,26,15,23,14,9,83,61,33,30.59,30.31,5,1,7,0.00
2013-11-26,36,34,32,33,28,19,96,80,51,30.32,29.73,2,0,4,1.11
2013-11-27,37,32,24,35,27,14,98,81,66,30.13,29.66,15,6,23,0.03
2013-11-28,32,27,23,25,19,14,81,72,63,30.50,30.12,14,4,22,0.00
2013-11-29,37,29,22,27,24,19,90,81,60,30.74,30.50,7,1,10,0.00
2013-11-30,34,25,19,26,21,16,91,84,69,30.74,30.39,4,0,5,0.00
2013-12-1,49,34,22,37,29,20,92,83,57,30.39,30.03,10,1,17,0.00
2013-12-2,48,40,35,40,36,34,96,89,69,30.02,29.86,3,0,4,0.00
2013-12-3,55,40,34,43,36,33,96,86,61,30.01,29.89,6,1,7,0.00
2013-12-4,53,41,33,44,37,31,97,88,68,30.09,29.99,4,1,7,0.00
2013-12-5,54,45,35,49,43,33,100,93,78,30.07,29.93,3,0,7,0.08
2013-12-6,52,41,34,52,40,34,100,94,84,30.22,29.91,14,3,24,1.12
2013-12-7,36,32,26,34,27,20,99,80,68,30.59,30.20,12,4,20,0.00
2013-12-8,26,24,23,25,21,19,95,88,77,30.60,30.32,5,2,8,0.48
2013-12-9,44,34,26,40,30,25,97,89,76,30.32,30.07,18,4,26,0.15
2013-12-10,35,32,27,30,25,17,91,75,62,30.24,30.02,19,6,29,0.01
2013-12-11,36,30,24,23,18,15,78,63,43,30.42,30.23,19,7,32,0.00
2013-12-12,31,24,20,23,11,7,79,59,45,30.48,30.26,14,7,25,0.00
2013-12-13,39,30,24,25,17,8,84,59,43,30.33,30.24,17,6,30,0.00
2013-12-14,34,32,29,32,30,24,98,91,77,30.32,29.77,8,2,11,0.46
2013-12-15,38,33,30,36,29,23,98,84,73,29.99,29.67,17,7,34,0.00
2013-12-16,34,32,29,29,26,23,85,79,71,30.18,29.98,15,3,26,0.00
2013-12-17,40,34,30,36,30,25,96,85,73,30.14,29.92,20,4,32,0.07
2013-12-18,35,31,28,26,23,20,83,73,62,30.23,30.03,14,6,34,0.00
2013-12-19,57,39,22,39,30,20,90,72,46,30.20,30.07,15,5,35,0.00
2013-12-20,50,39,30,46,36,29,95,87,69,30.13,29.98,9,1,14,0.00
2013-12-21,65,49,38,55,46,38,100,92,68,30.01,29.82,6,1,8,0.00
2013-12-22,67,56,48,62,52,48,100,88,61,29.98,29.72,18,4,31,0.04
2013-12-23,52,44,33,52,40,24,100,85,67,30.29,29.88,13,4,19,0.08
2013-12-24,34,28,19,25,18,8,78,65,48,30.54,30.24,16,6,26,0.00
2013-12-25,33,25,17,20,14,9,74,63,46,30.59,30.33,6,2,9,0.00
2013-12-26,40,33,27,30,22,18,80,65,51,30.40,30.24,16,4,30,0.00
2013-12-27,47,31,20,25,21,16,91,70,29,30.42,30.34,14,3,25,0.00
2013-12-28,55,37,23,31,27,20,92,70,37,30.37,30.13,12,3,18,0.00
2013-12-29,46,40,36,45,38,31,100,92,82,30.13,29.63,11,3,20,1.04
2013-12-30,43,34,29,38,30,23,95,82,73,30.20,29.88,10,4,22,0.05
2013-12-31,34,30,27,25,22,18,81,71,61,30.33,30.12,21,10,41,0.00
2014-1-1,47,30,23,32,24,20,91,79,45,30.40,30.13,10,2,19,0.00
2014-1-2,31,28,20,28,25,14,94,89,75,30.13,29.71,17,2,27,0.09